Wetbulb
67.08 69.56 72.73 71.75 72.01 71.88 71.64 71.66 71.87 72.38 72.76 72.10 71.85 71.63 72.05 71.93 71.94 71.24 71.02 70.77 70.36 70.01 69.94 70.06 69.85 69.94 70.45 71.00 71.38 71.45 71.44 71.46 71.66 71.63 71.95 72.46 72.97 72.43 72.20 72.42 72.62 71.30 73.29
68.46 70.33 71.86 72.24 71.72 71.58 71.51 71.39 71.82 72.46 72.85 72.89 71.94 72.32 71.95 71.89 71.64 71.22 70.93 70.80 70.33 69.82 69.98 69.64 69.53 69.45 69.41 69.43 69.76 70.27 70.77 70.62 70.59 70.96 70.15 70.34 71.33 72.43 72.06 72.61 72.74 71.70 73.10
69.02 69.99 70.51 71.71 72.04 71.40 71.06 70.79 71.42 71.74 72.26 73.20 72.39 71.87 71.51 71.97 72.15 71.11 70.01 70.28 70.00 69.64 69.79 69.73 69.71 70.14 69.95 69.31 68.90 68.97 69.63 69.85 70.14 70.26 69.68 67.57 68.90 72.14 71.88 72.82 72.82 72.40 72.20
68.19 69.26 70.24 71.26 71.03 71.01 70.85 70.81 70.55 71.00 71.07 70.91 71.46 71.14 70.67 71.57 71.49 70.37 70.47 69.80 70.20 70.22 69.93 69.61 69.21 69.70 69.84 69.88 69.41 69.49 69.86 68.60 68.55 69.43 67.21 67.57 69.08 71.59 71.24 71.68 71.97 71.76 71.54
67.77 68.94 69.77 71.14 70.20 70.83 70.59 70.66 70.71 70.51 70.37 70.27 69.64 69.75 69.98 69.77 70.12 71.03 70.65 70.33 69.86 69.57 69.61 69.27 68.78 68.74 68.93 68.81 68.89 68.76 68.35 67.65 67.52 68.05 66.30 66.53 67.76 70.48 71.10 71.34 71.70 71.69 71.25
67.38 68.61 70.13 70.77 70.23 70.16 70.75 70.58 70.04 69.69 69.70 69.84 69.54 69.55 69.50 69.30 69.72 70.93 70.78 70.14 69.42 68.93 68.68 68.74 68.45 68.09 67.93 67.84 67.73 67.58 67.15 66.30 65.56 63.91 64.96 68.09 66.78 70.36 70.82 70.76 71.20 71.25 70.82
66.02 66.76 67.66 69.66 69.88 69.86 68.82 67.88 68.11 68.41 69.79 69.67 68.97 69.05 69.00 69.26 68.97 69.00 69.97 69.25 68.82 68.16 67.69 67.71 67.96 67.63 67.19 67.14 66.97 66.78 66.08 64.94 60.43 62.42 63.64 65.81 66.74 70.15 70.45 70.44 70.59 70.73 70.34
63.07 63.69 64.70 67.38 68.51 69.50 69.76 69.95 69.80 69.78 69.20 68.79 69.03 68.71 68.95 69.42 68.97 69.13 69.51 68.94 68.54 68.09 67.76 67.35 67.20 67.08 66.68 66.31 66.11 65.93 66.13 64.94 59.90 62.28 63.13 65.03 69.95 69.10 69.73 70.10 70.21 70.34 70.32
64.07 63.81 63.70 63.64 66.33 68.09 68.54 69.12 69.36 69.04 69.01 69.07 69.15 68.97 68.58 68.71 69.42 68.82 69.22 69.16 69.00 68.93 68.88 68.45 67.57 67.58 67.51 67.02 66.86 67.26 66.39 65.37 57.39 61.17 64.43 64.04 69.96 69.73 68.78 68.85 69.61 69.94 70.52
62.95 62.69 61.94 61.79 63.62 63.37 64.64 67.41 67.42 67.78 67.93 67.99 67.82 67.18 66.73 67.61 68.03 68.52 68.14 68.19 67.57 67.57 68.17 68.69 67.92 67.73 67.55 67.24 67.25 67.41 66.32 64.73 62.00 61.22 63.49 64.81 68.73 68.93 69.21 68.36 68.18 68.51 68.80
62.42 62.53 62.32 61.94 63.12 62.85 63.57 64.72 65.63 66.09 65.73 65.26 65.33 65.58 65.70 65.25 65.97 66.06 66.00 66.58 67.38 67.26 67.28 67.47 67.89 68.52 67.81 67.16 67.13 66.64 65.44 63.37 62.46 60.34 62.22 67.42 67.68 66.16 68.13 68.23 68.47 68.63 68.46
60.82 62.67 62.79 61.53 62.19 63.03 64.05 62.68 62.04 63.74 62.77 62.75 62.58 62.84 63.33 64.38 64.89 64.34 63.61 64.86 66.48 66.83 67.31 67.33 67.48 67.73 66.72 65.37 65.18 65.24 64.13 64.45 62.06 61.36 63.25 67.38 67.41 67.20 65.61 65.59 66.90 67.64 68.32
60.80 61.62 60.93 60.91 61.48 62.54 62.11 61.78 62.33 61.84 61.07 61.41 61.48 62.12 62.11 62.63 62.49 63.62 63.05 62.58 64.15 62.92 63.77 64.67 64.45 64.78 64.27 64.43 63.65 61.21 61.14 60.74 63.61 63.96 65.11 67.08 66.49 66.77 67.52 66.34 65.57 66.04 67.13
58.60 58.77 59.40 59.39 59.42 60.77 60.60 60.87 61.07 62.04 60.80 59.95 60.62 61.92 60.57 60.73 61.00 61.51 61.57 61.21 62.73 61.85 61.30 61.91 60.94 64.17 64.06 61.51 60.22 59.17 59.06 58.27 61.51 62.95 63.24 64.69 66.16 66.52 66.39 67.58 67.25 66.30 66.35
56.55 55.90 56.15 57.65 57.10 57.70 56.94 56.93 59.24 59.36 58.73 58.54 57.99 59.06 62.83 60.18 59.38 59.31 59.04 59.22 59.02 59.58 59.54 60.47 59.58 59.16 58.33 57.41 56.34 56.21 56.17 56.49 56.77 58.07 59.83 62.55 64.61 65.22 66.05 67.33 67.10 67.07 66.52
56.18 54.62 54.43 56.81 55.17 54.92 54.30 54.71 54.93 56.10 55.78 54.91 54.55 56.23 60.31 60.37 60.61 59.76 58.55 57.45 56.70 57.30 57.30 57.17 57.83 56.83 57.23 57.72 56.65 55.37 54.47 54.02 53.38 54.68 54.54 56.73 61.87 63.47 65.10 65.98 65.83 65.81 65.87
55.62 54.03 53.89 55.20 54.27 53.16 52.81 53.01 53.18 53.99 53.80 52.65 52.98 53.63 55.03 56.60 57.52 57.19 55.64 54.58 54.62 55.13 54.33 53.26 53.52 53.44 52.83 54.16 54.53 54.71 53.13 52.30 51.41 51.01 51.97 52.31 54.63 59.99 62.07 63.25 64.16 64.33 64.78
53.84 52.53 53.76 55.65 53.23 52.19 51.57 51.16 51.07 51.65 51.17 51.03 50.50 50.96 52.36 53.12 53.68 53.09 52.38 51.40 51.65 51.56 52.24 52.03 52.26 52.24 51.28 50.84 50.50 50.60 50.94 51.30 50.82 50.14 50.67 51.12 52.26 56.67 58.74 60.04 60.11 60.57 60.97
53.32 51.83 52.71 52.66 51.90 51.40 50.51 50.18 49.73 49.27 48.85 49.21 49.37 49.41 50.21 50.54 51.10 50.58 50.40 50.21 50.72 49.96 49.32 49.86 49.00 50.10 49.53 49.49 49.59 48.70 50.31 49.80 49.58 51.82 52.13 52.61 52.28 54.25 55.08 58.50 58.99 59.44 60.50
51.05 51.38 51.81 51.79 51.16 50.43 49.92 49.07 48.25 48.09 47.34 47.28 47.14 47.83 48.97 49.22 49.57 49.37 49.10 48.40 49.08 48.75 47.96 48.31 47.56 47.27 46.40 46.03 48.75 49.41 49.13 50.02 51.16 51.52 52.56 53.50 52.27 52.42 52.90 52.52 53.82 55.84 61.10
48.98 49.18 50.16 50.58 50.17 49.61 48.44 47.14 46.66 45.94 46.14 46.40 47.20 48.40 48.38 48.37 48.86 47.83 47.45 47.35 47.05 46.28 45.44 46.42 47.26 46.79 45.22 45.73 46.56 47.24 48.27 49.54 49.09 49.90 51.47 51.58 51.23 51.43 51.76 50.93 50.72 51.63 55.01
48.34 48.44 49.50 50.49 50.03 49.82 48.87 48.04 47.66 46.40 46.47 46.60 46.74 46.92 47.69 47.72 47.84 47.70 46.66 46.26 46.36 45.96 45.53 45.26 45.49 45.17 45.31 44.60 44.72 45.07 44.19 46.98 48.60 48.92 48.85 48.23 46.46 47.15 47.78 49.32 50.27 50.05 51.25
47.43 47.59 49.38 50.26 50.27 49.76 49.31 47.92 46.95 46.91 46.28 45.60 45.35 45.23 46.24 46.92 46.95 46.90 46.31 46.00 45.91 45.54 44.64 44.30 44.40 45.07 43.93 43.98 44.66 45.14 41.46 42.13 43.12 46.38 45.20 44.59 44.57 44.73 45.38 46.82 46.96 49.42 50.59
48.10 48.44 49.61 50.18 49.97 49.72 48.70 47.24 46.22 45.33 44.26 44.82 44.87 44.81 45.12 45.93 45.65 46.22 46.14 45.68 45.36 44.83 44.21 44.50 45.47 44.46 44.37 43.31 44.39 45.99 44.55 44.18 41.16 42.17 44.81 43.55 43.83 43.81 43.24 44.30 45.24 46.97 51.01
49.09 48.42 48.84 49.34 49.18 48.69 47.90 47.27 45.96 44.63 44.40 44.23 44.41 43.93 43.93 44.17 45.01 45.42 45.26 44.59 44.37 44.24 43.72 44.27 44.36 44.27 44.63 43.92 43.50 43.65 43.75 43.08 42.69 41.53 40.26 41.40 42.03 42.69 42.94 43.13 43.96 45.18 50.99
48.46 48.48 48.15 48.14 48.12 48.06 47.66 47.16 46.17 45.10 44.16 43.38 43.10 42.73 42.95 43.37 43.78 44.32 45.03 43.86 43.82 43.54 43.66 43.99 44.08 43.82 44.03 43.84 43.94 44.14 43.31 42.18 40.50 39.79 38.42 37.96 37.67 40.60 41.68 42.99 43.26 46.03 49.28
MSLP
1016.89 1016.66 1016.53 1016.43 1016.40 1016.46 1016.41 1016.36 1016.36 1016.39 1016.38 1016.37 1016.52 1016.69 1016.77 1016.71 1016.45 1016.46 1016.61 1016.67 1016.77 1016.78 1016.77 1016.88 1016.94 1016.91 1016.85 1016.82 1016.71 1016.82 1016.73 1016.64 1016.58 1016.48 1016.36 1016.31 1016.34 1016.41 1016.46 1016.49 1016.52 1016.57 1016.62
1016.61 1016.74 1016.61 1016.61 1016.62 1016.58 1016.65 1016.78 1016.74 1016.77 1016.65 1016.44 1016.59 1016.82 1016.92 1016.95 1016.89 1016.75 1016.68 1016.82 1016.92 1016.95 1016.98 1017.12 1017.14 1017.14 1017.09 1017.04 1017.04 1017.06 1017.01 1016.92 1016.92 1016.87 1016.75 1016.65 1016.58 1016.57 1016.57 1016.65 1016.72 1016.82 1016.75
1016.62 1016.76 1016.79 1016.71 1016.75 1016.80 1016.91 1016.94 1016.92 1016.98 1016.97 1016.77 1016.53 1016.54 1016.67 1016.95 1016.98 1017.09 1016.99 1016.90 1017.01 1017.12 1017.24 1017.38 1017.40 1017.37 1017.36 1017.32 1017.32 1017.23 1017.16 1017.12 1017.00 1016.91 1016.92 1016.88 1016.86 1016.74 1016.81 1016.82 1016.89 1016.95 1017.03
1016.80 1017.01 1017.02 1016.98 1017.00 1017.07 1017.19 1017.17 1017.28 1017.19 1017.16 1017.22 1017.09 1017.13 1016.95 1016.89 1016.98 1017.05 1017.11 1017.22 1017.26 1017.41 1017.52 1017.64 1017.66 1017.65 1017.62 1017.61 1017.62 1017.58 1017.43 1017.42 1017.19 1017.05 1017.11 1017.05 1016.93 1016.97 1016.94 1016.94 1017.08 1017.14 1017.24
1017.23 1017.23 1017.18 1017.16 1017.15 1017.29 1017.38 1017.44 1017.40 1017.41 1017.48 1017.41 1017.46 1017.54 1017.37 1017.39 1017.45 1017.19 1017.25 1017.48 1017.64 1017.74 1017.80 1017.85 1017.90 1017.93 1017.91 1017.88 1017.86 1017.83 1017.71 1017.50 1017.36 1017.42 1017.44 1017.30 1017.17 1017.16 1017.09 1017.13 1017.13 1017.26 1017.49
1017.34 1017.41 1017.48 1017.47 1017.47 1017.52 1017.51 1017.52 1017.60 1017.61 1017.57 1017.52 1017.53 1017.42 1017.62 1017.70 1017.68 1017.63 1017.73 1017.81 1018.04 1018.14 1018.17 1018.05 1018.09 1018.20 1018.24 1018.11 1018.07 1018.06 1018.13 1017.97 1017.91 1017.89 1017.86 1017.56 1017.43 1017.41 1017.42 1017.23 1017.29 1017.52 1017.69
1017.66 1017.70 1017.68 1017.63 1017.62 1017.59 1017.59 1017.66 1017.69 1017.65 1017.68 1017.72 1017.83 1017.77 1017.80 1017.73 1017.88 1017.72 1018.01 1017.98 1018.06 1018.21 1018.39 1018.42 1018.26 1018.29 1018.43 1018.41 1018.30 1018.24 1018.33 1018.38 1018.31 1018.23 1018.18 1017.91 1017.70 1017.62 1017.54 1017.52 1017.49 1017.58 1017.81
1017.72 1017.78 1017.87 1017.81 1017.82 1017.86 1017.85 1017.84 1017.85 1017.81 1017.76 1017.73 1017.77 1017.74 1017.80 1017.86 1017.93 1018.02 1018.08 1018.26 1018.22 1018.10 1018.20 1018.51 1018.64 1018.50 1018.51 1018.60 1018.52 1018.54 1018.54 1018.72 1018.49 1018.39 1018.31 1018.12 1017.89 1017.94 1017.93 1017.85 1017.81 1017.75 1017.89
1017.35 1017.82 1018.06 1018.07 1018.11 1018.22 1018.35 1018.26 1018.17 1018.05 1017.95 1017.81 1017.87 1017.96 1017.96 1017.92 1017.97 1018.18 1018.37 1018.34 1018.44 1018.33 1017.93 1018.11 1018.76 1018.86 1018.61 1018.56 1018.67 1018.68 1018.71 1018.88 1018.73 1018.58 1018.40 1018.26 1018.15 1018.12 1018.19 1018.21 1018.17 1018.13 1018.14
1017.84 1017.99 1018.24 1018.19 1018.23 1018.35 1018.39 1018.36 1018.31 1018.30 1018.28 1018.34 1018.28 1018.29 1018.35 1018.36 1018.12 1018.23 1018.42 1018.49 1018.54 1018.67 1018.31 1017.25 1018.77 1019.17 1018.87 1018.62 1018.56 1018.49 1018.86 1018.96 1018.92 1018.73 1018.75 1018.46 1018.35 1018.28 1018.27 1018.40 1018.43 1018.42 1018.54
1018.16 1018.17 1018.11 1018.20 1018.28 1018.29 1018.38 1018.41 1018.41 1018.48 1018.49 1018.40 1018.47 1018.61 1018.51 1018.66 1018.83 1018.71 1018.72 1018.65 1018.74 1018.66 1018.46 1018.04 1018.74 1019.02 1019.02 1018.85 1018.54 1018.44 1018.83 1018.82 1018.81 1018.78 1018.85 1018.65 1018.44 1018.41 1018.41 1018.46 1018.53 1018.51 1018.55
1018.08 1018.09 1018.11 1018.25 1018.28 1018.40 1018.44 1018.70 1018.77 1018.79 1018.92 1018.85 1018.82 1018.78 1018.80 1018.71 1018.63 1018.92 1019.12 1018.98 1018.98 1018.76 1018.65 1018.27 1018.44 1018.87 1019.02 1018.86 1018.74 1018.71 1018.85 1018.87 1018.81 1018.92 1018.94 1018.85 1018.53 1018.44 1018.53 1018.52 1018.52 1018.53 1018.59
1017.90 1018.08 1018.16 1018.21 1018.20 1018.39 1018.65 1018.77 1018.83 1018.95 1019.09 1019.08 1019.06 1019.09 1019.06 1019.11 1019.15 1019.24 1019.23 1019.18 1019.06 1019.15 1019.26 1019.06 1018.78 1018.95 1018.86 1018.63 1019.11 1018.84 1019.18 1019.18 1019.32 1019.13 1019.01 1018.92 1018.73 1018.62 1018.55 1018.59 1018.64 1018.62 1018.55
1017.99 1018.36 1018.31 1018.30 1018.40 1018.42 1018.62 1018.76 1018.90 1018.92 1019.02 1019.26 1019.22 1019.23 1019.21 1019.28 1019.28 1019.17 1019.17 1019.16 1019.03 1019.14 1019.29 1018.92 1019.03 1018.90 1018.95 1018.73 1018.97 1018.85 1019.59 1019.41 1019.40 1019.40 1019.30 1019.11 1018.92 1018.69 1018.61 1018.58 1018.64 1018.71 1018.69
1018.11 1018.25 1018.21 1018.21 1018.39 1018.47 1018.46 1018.58 1018.62 1018.76 1018.85 1018.89 1019.08 1019.10 1018.94 1019.16 1019.25 1019.27 1019.29 1019.29 1019.39 1019.20 1019.31 1019.40 1019.05 1019.14 1019.14 1019.23 1019.14 1018.84 1019.34 1019.40 1019.71 1019.56 1019.56 1019.25 1019.15 1018.88 1018.67 1018.67 1018.66 1018.70 1018.75
1017.76 1017.93 1018.02 1018.13 1018.20 1018.35 1018.54 1018.59 1018.62 1018.63 1018.76 1018.93 1019.03 1019.11 1019.10 1019.18 1019.25 1019.38 1019.55 1019.67 1019.58 1019.66 1019.57 1019.26 1019.34 1019.60 1019.52 1019.37 1019.13 1019.00 1019.15 1019.52 1019.62 1019.51 1019.43 1019.47 1019.27 1019.11 1018.84 1018.76 1018.70 1018.67 1018.68
1017.22 1017.50 1017.64 1017.84 1018.13 1018.32 1018.33 1018.38 1018.53 1018.71 1018.96 1019.14 1019.17 1019.07 1019.13 1019.22 1019.33 1019.54 1019.73 1019.97 1020.02 1019.98 1019.90 1019.80 1019.69 1019.48 1019.53 1019.39 1019.33 1019.33 1019.45 1019.52 1019.62 1019.72 1019.47 1019.39 1019.34 1019.27 1019.07 1018.90 1019.01 1018.95 1018.82
1017.08 1017.30 1017.39 1017.72 1018.14 1018.51 1018.55 1018.69 1018.77 1018.99 1019.24 1019.36 1019.38 1019.25 1019.15 1019.28 1019.38 1019.52 1019.76 1019.88 1019.93 1020.04 1019.93 1020.08 1020.07 1019.87 1019.89 1019.73 1019.65 1019.66 1019.67 1019.78 1019.76 1019.80 1019.81 1019.56 1019.38 1019.40 1019.34 1019.16 1019.19 1019.24 1019.16
1016.74 1017.11 1017.44 1017.72 1018.14 1018.73 1019.06 1019.29 1019.41 1019.51 1019.57 1019.59 1019.74 1019.73 1019.59 1019.43 1019.40 1019.61 1019.76 1019.89 1019.91 1020.04 1020.10 1020.22 1020.22 1020.05 1019.97 1020.17 1020.04 1020.03 1019.91 1019.96 1019.88 1019.87 1019.91 1019.86 1019.62 1019.50 1019.48 1019.36 1019.42 1019.46 1019.45
1016.84 1017.17 1017.48 1017.90 1018.34 1019.07 1019.62 1019.81 1019.94 1019.92 1019.98 1019.98 1019.93 1019.80 1019.68 1019.61 1019.50 1019.62 1019.74 1019.77 1019.85 1020.01 1020.17 1020.15 1020.19 1020.49 1020.49 1020.48 1020.51 1020.29 1020.36 1020.35 1020.26 1020.11 1020.03 1019.99 1020.22 1019.82 1019.58 1019.70 1019.75 1019.70 1019.63
1017.29 1017.67 1017.90 1018.28 1018.67 1019.15 1019.78 1020.18 1020.40 1020.51 1020.49 1020.39 1020.11 1019.92 1019.89 1019.71 1019.62 1019.74 1019.95 1020.01 1019.89 1020.22 1020.36 1020.45 1020.46 1020.53 1020.93 1020.65 1020.80 1021.01 1020.70 1020.65 1020.55 1020.45 1020.42 1020.35 1020.44 1020.40 1020.13 1020.15 1020.27 1020.02 1020.09
1017.31 1017.73 1018.08 1018.25 1018.56 1018.98 1019.39 1019.76 1019.98 1020.27 1020.43 1020.39 1020.38 1020.32 1020.11 1019.95 1019.80 1019.74 1019.87 1019.93 1019.97 1020.14 1020.49 1020.43 1020.50 1020.89 1021.01 1020.86 1020.97 1021.34 1021.34 1021.23 1021.05 1021.23 1020.86 1020.76 1020.91 1020.84 1020.53 1020.40 1020.47 1020.62 1020.42
1016.96 1017.34 1017.51 1017.73 1018.07 1018.53 1019.09 1019.65 1020.13 1020.44 1020.69 1020.84 1020.72 1020.63 1020.52 1020.36 1020.16 1020.03 1020.18 1020.26 1020.20 1020.14 1020.24 1020.40 1020.49 1020.56 1020.92 1021.16 1020.85 1021.01 1021.50 1021.38 1021.73 1021.58 1021.42 1021.24 1021.38 1021.24 1021.11 1021.09 1020.77 1020.76 1020.85
1016.58 1017.04 1017.37 1017.61 1017.96 1018.35 1018.89 1019.50 1020.00 1020.38 1020.76 1020.68 1020.66 1020.82 1020.87 1020.66 1020.51 1020.20 1020.36 1020.48 1020.50 1020.50 1020.47 1020.40 1020.43 1020.52 1020.67 1021.07 1020.93 1020.94 1021.09 1021.16 1021.55 1022.07 1021.95 1021.96 1021.67 1021.59 1021.64 1021.35 1021.15 1020.97 1020.98
1016.49 1016.89 1017.15 1017.45 1017.84 1018.15 1018.52 1018.88 1019.45 1020.01 1020.29 1020.36 1020.55 1020.71 1020.79 1020.71 1020.56 1020.54 1020.45 1020.56 1020.70 1020.66 1020.72 1020.65 1020.51 1020.59 1020.49 1020.86 1021.04 1021.17 1021.37 1021.42 1021.42 1021.77 1022.04 1022.27 1022.06 1021.85 1021.72 1021.51 1021.42 1021.04 1021.02
1016.33 1016.68 1016.98 1017.31 1017.55 1017.78 1018.11 1018.59 1019.12 1019.65 1020.01 1020.31 1020.52 1020.79 1020.79 1020.66 1020.57 1020.32 1020.47 1020.70 1020.77 1020.72 1020.91 1020.91 1020.65 1020.72 1020.84 1020.72 1021.02 1021.14 1021.35 1021.52 1021.79 1021.83 1022.34 1022.56 1022.57 1022.28 1021.88 1021.79 1021.47 1021.26 1021.34
Wind_Speed
2 3 3 4 5 5 5 5 6 6 6 7 8 7 7 8 11 11 10 12 11 10 10 11 10 10 10 11 12 12 12 13 12 12 10 10 9 9 8 7 6 7 14
6 4 4 4 5 3 3 3 4 4 6 9 9 7 6 5 7 9 10 10 10 10 11 10 10 9 9 9 10 10 10 10 8 8 8 8 8 7 7 6 8 8 14
6 4 3 3 4 3 2 2 3 5 4 8 10 11 8 7 8 8 8 10 10 10 10 9 9 9 9 8 9 9 9 9 8 3 4 4 5 8 9 8 8 9 11
7 4 3 3 4 4 2 3 3 4 3 3 5 5 7 9 9 8 9 8 10 9 9 9 9 9 9 9 9 9 10 11 9 9 4 4 5 7 8 9 9 11 11
6 4 4 4 5 5 4 5 4 4 4 3 1 2 4 6 6 10 10 9 8 8 8 8 8 8 8 9 10 10 13 14 9 8 5 4 5 6 7 8 9 11 11
5 5 7 9 8 7 7 6 4 3 2 2 2 4 4 2 4 8 9 9 7 6 6 7 8 7 8 8 9 11 13 13 8 5 4 5 5 6 7 8 9 11 12
5 5 5 9 8 8 4 3 3 3 3 2 1 1 1 2 1 2 8 8 7 6 5 5 6 6 6 7 8 9 10 9 5 4 4 4 4 6 7 8 10 12 13
8 6 5 6 8 8 9 6 7 7 3 1 2 2 2 4 4 4 7 6 6 7 6 4 4 5 5 6 9 10 10 9 5 3 3 4 3 4 5 6 8 10 11
7 6 3 3 5 8 9 9 8 8 7 6 5 4 4 4 4 4 4 5 5 6 8 7 2 2 3 3 6 8 9 9 5 1 1 2 3 4 5 5 6 7 8
6 6 4 2 4 4 4 7 8 7 6 7 6 6 7 7 6 6 2 3 2 2 1 11 2 4 2 1 3 6 8 6 5 0 1 1 5 3 3 4 5 6 7
5 6 4 4 4 3 3 3 4 5 6 6 6 7 5 2 4 5 5 3 1 4 3 4 3 6 5 3 4 5 6 2 3 2 1 3 5 5 3 2 3 5 7
7 6 6 5 5 4 3 3 2 3 3 3 3 3 3 3 4 2 3 4 4 4 3 5 7 7 5 1 3 4 2 3 2 2 0 3 3 4 3 3 1 1 5
5 3 6 5 2 2 3 2 1 2 2 2 2 1 1 1 1 0 2 1 1 2 3 3 2 2 2 2 2 4 5 4 3 1 1 2 2 1 4 2 2 2 2
6 6 5 5 3 4 2 3 3 2 2 1 2 2 1 0 0 1 1 2 1 1 2 1 1 2 1 2 4 7 2 3 2 1 3 4 4 3 3 5 5 4 4
7 7 7 6 4 4 4 3 3 4 3 3 2 1 2 1 1 1 1 1 1 1 1 2 2 2 2 0 3 6 4 3 0 1 1 4 4 4 5 7 6 7 5
8 8 7 7 5 6 5 5 4 4 4 3 2 0 3 2 2 1 2 2 2 2 3 1 1 1 2 1 2 4 3 3 1 1 1 2 4 5 5 5 6 5 3
9 9 9 8 7 6 6 5 4 4 3 3 3 3 3 2 2 3 2 1 1 2 2 2 1 1 1 1 1 3 2 1 2 1 2 1 3 4 5 7 7 7 7
8 9 8 7 7 6 5 4 3 3 3 3 2 2 3 2 2 3 2 2 1 1 1 2 2 2 2 2 2 2 1 1 1 1 2 1 1 1 4 6 7 7 6
11 10 8 8 8 6 4 4 4 5 3 2 2 2 3 4 2 3 2 1 2 1 2 2 3 2 2 3 2 2 1 0 0 1 2 3 2 2 2 6 7 8 8
7 7 7 6 7 6 4 4 3 3 3 3 2 2 3 3 3 3 2 2 1 1 1 1 2 3 2 1 3 2 2 1 2 3 3 3 3 4 4 5 4 4 8
5 7 7 8 7 5 2 3 2 2 1 1 1 2 3 2 3 4 2 2 3 3 1 0 1 2 3 2 2 2 3 3 3 3 3 4 5 4 5 5 3 3 4
7 8 7 7 8 5 3 2 2 3 2 1 1 1 1 2 3 3 4 3 3 4 3 2 2 2 1 2 3 1 1 2 3 3 3 4 5 3 5 5 5 4 4
8 9 9 8 9 6 5 3 3 3 3 2 1 1 1 1 2 3 3 3 3 3 3 2 2 3 3 1 3 3 2 3 1 3 4 4 5 4 4 4 5 4 4
8 7 6 7 8 6 7 4 5 4 4 3 3 2 2 1 2 3 3 2 2 2 3 2 2 2 3 3 1 3 3 2 3 1 1 1 3 4 4 3 4 3 4
7 8 7 7 7 6 8 7 6 4 3 2 2 4 3 2 2 2 3 3 2 2 1 2 2 2 2 3 2 2 2 3 2 2 2 2 2 3 3 3 3 2 4
6 6 7 8 7 7 7 7 8 7 5 3 3 4 3 3 3 2 3 3 2 3 1 1 2 3 2 4 2 2 2 2 1 2 2 1 0 3 2 4 4 2 3
Wind_Direction
214 207 146 123 131 137 139 129 131 132 132 136 125 120 122 125 121 116 98 100 94 92 88 80 73 67 61 55 58 57 61 60 63 64 61 73 72 84 87 101 103 104 111
136 179 143 137 126 125 104 104 109 118 137 131 131 127 119 138 123 117 110 104 99 95 85 80 72 66 58 56 57 60 57 56 51 56 60 65 70 72 85 115 108 118 119
116 115 109 110 122 123 125 119 116 115 134 146 144 144 137 134 135 117 113 114 106 99 91 79 70 66 55 48 49 52 48 33 15 53 103 72 69 81 86 95 111 123 117
105 82 107 131 128 112 96 68 47 69 93 141 148 151 149 148 142 132 122 109 100 102 97 83 67 58 51 41 44 39 31 21 9 92 81 55 71 82 97 108 120 124 115
81 77 65 64 68 75 73 68 73 76 67 57 62 189 166 147 158 143 129 118 112 111 107 93 73 56 47 36 36 30 27 23 67 79 74 72 72 84 98 114 122 124 116
97 66 62 61 66 82 83 91 78 53 100 94 140 168 201 196 205 147 119 115 108 105 102 99 83 59 35 27 28 27 30 25 56 69 61 58 68 84 91 111 124 122 118
94 88 74 73 68 65 90 83 45 27 44 69 49 140 168 153 156 197 119 128 125 116 101 91 94 79 44 16 15 21 34 28 29 44 54 66 57 79 93 102 124 123 122
133 104 84 73 71 71 68 86 75 67 102 105 141 116 96 147 148 153 143 143 143 137 122 87 70 79 61 22 4 8 11 33 38 76 58 57 98 91 81 91 114 129 140
126 115 87 57 68 74 77 68 69 72 72 84 100 108 107 119 157 163 157 170 180 175 145 111 51 46 91 50 6 0 7 22 27 324 82 66 90 123 109 104 103 116 125
102 110 129 108 92 74 84 88 89 87 77 67 72 75 57 55 68 71 77 171 165 337 40 113 330 288 321 43 10 7 358 30 338 279 331 105 92 94 135 139 141 143 142
124 141 141 124 124 127 111 110 102 98 84 76 60 50 80 62 52 44 64 52 160 178 138 41 277 266 265 301 339 356 355 357 336 168 178 218 134 115 97 141 193 190 167
176 179 148 155 148 152 134 129 109 81 66 64 67 72 72 82 90 75 43 39 44 17 319 169 195 243 230 299 340 7 11 341 78 145 151 230 173 149 141 144 116 165 209
197 158 148 152 142 146 141 156 141 110 78 45 61 93 131 105 97 358 355 15 54 34 319 328 349 206 216 162 82 67 30 24 323 321 52 18 23 324 229 188 199 186 175
147 142 147 138 133 155 138 156 186 151 111 44 21 38 72 56 33 72 136 28 36 46 308 102 17 331 244 144 139 95 73 42 19 339 20 31 22 25 324 262 226 220 202
148 163 160 148 145 145 132 133 137 134 143 147 93 26 165 193 178 120 114 78 38 7 313 314 357 326 285 256 123 114 121 89 339 46 345 17 7 11 356 349 267 249 240
161 165 159 155 154 145 147 150 146 156 143 132 123 90 79 102 123 109 59 20 35 341 331 311 156 205 231 230 34 59 90 143 142 84 11 348 358 11 8 33 27 17 259
178 162 168 155 153 147 149 154 152 154 135 129 133 110 113 106 136 133 128 99 324 314 309 339 330 116 82 31 356 111 274 22 74 25 93 50 351 2 18 40 47 45 43
159 173 164 152 154 162 158 139 115 116 119 120 115 126 108 105 145 124 140 162 156 359 46 42 1 55 53 43 37 16 58 352 327 79 353 44 37 71 40 59 55 47 46
176 165 165 153 157 153 137 104 95 99 100 110 93 74 71 64 75 134 131 32 31 29 32 12 29 44 50 10 5 20 76 137 32 55 66 28 49 85 97 52 64 55 44
172 166 151 148 142 127 106 91 70 80 66 67 85 97 93 65 76 109 114 84 93 94 43 54 91 39 65 23 337 17 10 76 90 86 64 57 45 61 67 66 61 55 63
142 150 157 146 145 134 132 119 89 128 90 44 63 92 86 88 87 109 113 92 84 111 110 55 114 111 11 14 83 359 30 38 47 77 86 73 46 40 60 62 64 60 58
171 170 161 162 158 164 148 165 151 159 193 162 125 79 109 96 110 129 130 115 133 121 98 76 103 120 122 28 135 95 138 2 27 8 50 72 62 30 34 43 53 57 65
177 182 176 172 166 168 163 112 78 67 48 56 263 266 272 122 104 108 117 113 123 127 135 130 136 157 149 352 59 149 128 191 168 6 31 48 47 39 34 14 29 50 83
196 174 174 165 169 170 156 146 157 172 180 218 192 181 209 198 142 123 118 121 124 122 128 146 140 151 134 169 50 43 63 139 158 161 19 10 31 35 11 356 4 18 112
158 173 179 173 174 160 165 170 176 187 210 189 179 176 196 205 171 142 139 136 129 120 124 126 102 98 126 126 151 152 59 50 71 124 173 284 348 342 341 338 333 3 139
163 158 169 175 188 176 174 181 189 201 199 187 194 198 204 205 206 179 149 143 147 133 142 130 105 93 88 106 122 99 133 155 136 103 103 61 356 305 330 351 357 47 100